Location: Moscow
(55.7500°N, 37.5830°E)
Time: 09:51:12
(UTC+03:00)

Transit 4A - Pass Details

Date: 08 December 2021
Orbit: 863 x 981 km, 66.8° (Epoch: 23 January)

Event Time Altitude Azimuth Distance (km) Brightness Sun altitude
Rises 18:30:09 0° 189° (S) 3,464 11.2 -19.8°
Reaches altitude 10° 18:32:45 10° 181° (S) 2,543 10.3 -20.2°
Maximum altitude 18:38:06 37° 116° (ESE) 1,370 8.4 -20.9°
Enters shadow 18:38:33 37° 106° (ESE) 1,385 8.3 -21.0°
